Tracking 19717 objects as of 25-Jun-2019
HD Live streaming from Space Station
objects crossing your sky now

THORAD AGENA D DEB

Track THORAD AGENA D DEB now!
10-day predictions


NORAD ID: 19150
Int'l Code: 1970-025PS
Perigee: 906.9 km
Apogee: 966.0 km
Inclination: 100.4 °
Period: 103.6 minutes
Semi major axis: 7307 km
RCS: 0.0118 m2 (small)
Launch date: April 8, 1970
Source: United States (US)
Launch site: AIR FORCE WESTERN TEST RANGE (AFWTR)

Note: This is SATELLITE DEBRIS
aabbcc
Your satellite tracking list
Your tracking list is empty




NASA's NSSDC Master Catalog

Two Line Element Set (TLE):
1 19150U 70025PS  19174.40359086  .00001016  00000-0  86467-3 0  9999
2 19150 100.3640 113.7364 0040446  49.1585  74.5965 13.89816788550765
Source of the keplerian elements: AFSPC